Location: ???? ?????????
(31.1304°N, 31.7111°E)
Time: 11:08:49
(UTC+00:00)

Transit 2A - Visible Passes

Search period start: 01 March 2021 00:00
Search period end: 11 March 2021 00:00
Orbit: 601 x 958 km, 66.7° (Epoch: 28 February)

Date Brightness Start Highest point End Pass type
(mag) Time Alt. Az. Time Alt. Az. Time Alt. Az.
01 Mar 5.6 02:53:08 44° WNW 02:54:02 53° WSW 02:58:22 10° S visible
01 Mar 8.3 17:24:54 10° WSW 17:29:16 24° WNW 17:33:21 10° N visible
02 Mar 6.4 02:21:23 42° SSE 02:21:23 42° SSE 02:24:23 10° SSE visible
02 Mar 7.7 16:49:56 10° SW 16:55:01 35° WNW 16:59:41 10° N visible
03 Mar 8.2 01:49:41 12° SE 01:49:41 12° SE 01:50:06 10° SE visible
03 Mar 6.9 16:15:19 10° SW 16:20:49 54° WNW 16:25:48 10° NNE visible
05 Mar 8.7 16:53:02 10° W 16:55:53 14° NW 16:58:37 10° NNW visible
06 Mar 8.5 16:17:27 10° WSW 16:21:34 22° WNW 16:25:25 10° N visible
